Retour au catalogue

SICRAL 2

ActifMilitaireGEO
NORAD 40614·PAYLOAD·🇫🇷 France🇮🇹 Italy

Lancé Apr 26, 2015 depuis Guiana Space Centre

Loading…

TLE

FraisSource: Mike McCants

Époque: Sep 14, 2026, 04:58 UTC

1 40614U 15022B   26257.20719805  .00000000  00000-0  00000-0 0    02
2 40614   0.0260 104.7650 0003453 359.8914   0.1086  1.00270000   333

Suivez SICRAL 2 en temps réel avec AllMySat

Download on the App Store